Stations météo

réclame
Mon MeteoGroup
Ibiza/Es Codola, Espagne (8373): Température de l'air & dewpoint: 13.10.2018 11:00:00 - 19.10.2018 11:00:00 (CEST)Ibiza/Es Codola, Espagne (8373): Vitesse du vent: 13.10.2018 11:00:00 - 19.10.2018 11:00:00 (CEST)Ibiza/Es Codola, Espagne (8373): Direction du vent: 13.10.2018 11:00:00 - 19.10.2018 11:00:00 (CEST)Ibiza/Es Codola, Espagne (8373): reduced air pressure: 13.10.2018 11:00:00 - 19.10.2018 11:00:00 (CEST)Ibiza/Es Codola, Espagne (8373): visibility: 13.10.2018 11:00:00 - 19.10.2018 11:00:00 (CEST)
Date & Time tt [°C] td [°C] ff [km/h] ff [knt] dd ppp [hPa] vv [km]
19.10.2018 11:00:00 23,0 19,0 4 2 - - 10
19.10.2018 10:00:00 20,4 16,3 2 1 - 1011,9 10
19.10.2018 09:00:00 18,4 16,2 2 1 - 1011,1 10
19.10.2018 08:00:00 17,2 15,2 0 0 N 1010,2 10
19.10.2018 07:00:00 17,2 15,2 0 0 N 1010,1 10
19.10.2018 06:00:00 17,0 14,9 5 3 N 1009,6 10
19.10.2018 05:00:00 17,5 15,3 4 2 WNW 1009,2 10
19.10.2018 04:00:00 17,7 15,5 4 2 - 1009,1 10
19.10.2018 03:00:00 17,7 15,3 5 3 NNE 1008,8 10
19.10.2018 02:00:00 18,2 15,8 5 3 NNW 1009,1 10
19.10.2018 01:00:00 18,4 16,1 4 2 - 1009,2 10
19.10.2018 00:00:00 18,5 16,0 8 4 WNW 1008,9 10
18.10.2018 23:00:00 18,7 16,3 9 5 N 1009,4 7
18.10.2018 22:00:00 18,5 16,3 4 2 - 1008,8 6
18.10.2018 21:00:00 19,0 16,1 21 11 NNE 1008,6 4,5
18.10.2018 20:00:00 20,7 16,5 9 5 N 1008,0 10
18.10.2018 19:00:00 21,2 16,4 8 4 E 1007,5 10
18.10.2018 18:00:00 21,7 16,4 11 6 E 1007,2 10
18.10.2018 17:00:00 22,5 15,9 16 9 E 1007,1 10
18.10.2018 16:00:00 22,3 16,6 16 9 E 1006,9 10
18.10.2018 15:00:00 23,4 15,4 15 8 E 1007,0 10
18.10.2018 14:00:00 22,7 14,3 18 10 E 1007,6 10
18.10.2018 13:00:00 22,7 15,3 18 10 ENE 1008,3 10
18.10.2018 12:00:00 22,6 15,5 16 9 ENE 1008,8 10
18.10.2018 11:00:00 22,5 15,1 8 4 ENE 1008,8 10
18.10.2018 10:00:00 20,7 16,0 4 2 - 1008,7 10
18.10.2018 09:00:00 18,0 15,5 2 1 - 1008,8 10
18.10.2018 08:00:00 17,5 15,1 5 3 S 1008,7 20
18.10.2018 07:00:00 18,2 15,3 9 5 N 1009,2 10
18.10.2018 06:00:00 16,2 13,9 0 0 N 1009,2 10
18.10.2018 05:00:00 18,0 15,4 9 5 N 1009,5 15
18.10.2018 04:00:00 18,7 15,0 8 4 NNW 1010,0 10
18.10.2018 03:00:00 18,2 15,1 5 3 WNW 1010,6 10
18.10.2018 02:00:00 18,5 15,2 8 4 NNW 1011,2 10
18.10.2018 01:00:00 18,9 15,9 8 4 N 1011,6 10
18.10.2018 00:00:00 18,6 15,5 15 8 N 1012,3 10
17.10.2018 23:00:00 18,9 14,9 2 1 - 1012,6 10
17.10.2018 22:00:00 19,7 15,3 5 3 NNW 1012,5 10
17.10.2018 21:00:00 19,4 15,3 9 5 N 1012,3 10
17.10.2018 20:00:00 19,7 16,1 15 8 N 1012,1 7
17.10.2018 19:00:00 21,0 14,6 16 9 N 1012,0 10
17.10.2018 18:00:00 21,2 14,8 11 6 N 1011,9 10
17.10.2018 17:00:00 21,7 14,7 22 12 N 1012,0 20
17.10.2018 16:00:00 24,2 12,1 9 5 NNW 1012,0 10
17.10.2018 15:00:00 24,2 11,2 21 11 NNE 1012,7 10
17.10.2018 14:00:00 24,2 13,0 16 9 N 1013,4 10
17.10.2018 13:00:00 23,4 11,5 21 11 NNE 1014,0 10
17.10.2018 12:00:00 22,7 12,6 13 7 N 1014,2 10
17.10.2018 11:00:00 22,6 13,2 11 6 NE 1014,7 10
17.10.2018 10:00:00 21,2 13,9 13 7 NNE 1014,6 10
17.10.2018 09:00:00 19,2 14,5 5 3 N 1014,6 10
17.10.2018 08:00:00 16,0 13,0 4 2 - 1014,4 10
17.10.2018 07:00:00 15,6 13,1 2 1 - 1014,3 10
17.10.2018 06:00:00 16,1 13,7 4 2 - 1014,3 10
17.10.2018 05:00:00 17,0 13,3 0 0 N 1014,3 10
17.10.2018 04:00:00 16,6 13,0 8 4 ENE 1014,7 10
17.10.2018 03:00:00 16,9 12,8 8 4 E 1015,3 10
17.10.2018 02:00:00 15,4 12,0 2 1 S 1015,6 10
17.10.2018 01:00:00 16,7 12,8 4 2 - 1015,6 10
17.10.2018 00:00:00 18,0 12,2 5 3 NW 1015,9 10
16.10.2018 23:00:00 17,6 13,9 8 4 NW 1015,8 10
16.10.2018 22:00:00 19,4 13,9 5 3 SSW 1015,8 10
16.10.2018 21:00:00 18,7 12,7 11 6 N 1015,2 10
16.10.2018 20:00:00 19,6 12,6 5 3 NNW 1014,9 10
16.10.2018 19:00:00 20,8 13,7 11 6 E 1014,5 10
16.10.2018 18:00:00 21,9 11,4 15 8 ENE 1014,1 10
16.10.2018 17:00:00 23,1 12,0 13 7 E 1013,8 10
16.10.2018 16:00:00 23,8 12,6 18 10 ESE 1013,4 10
16.10.2018 15:00:00 23,2 12,7 15 8 ENE 1013,3 10
16.10.2018 14:00:00 22,9 12,1 11 6 E 1013,5 10
16.10.2018 13:00:00 22,2 12,4 11 6 E 1013,8 10
16.10.2018 12:00:00 22,2 12,7 11 6 E 1013,7 10
16.10.2018 11:00:00 22,9 12,5 9 5 ESE 1013,5 10
16.10.2018 10:00:00 21,1 13,0 9 5 NNE 1013,1 10
16.10.2018 09:00:00 15,9 11,9 4 2 - 1012,4 10
16.10.2018 08:00:00 15,2 11,3 4 2 - 1011,7 10
16.10.2018 07:00:00 15,5 11,5 4 2 - 1011,5 10
16.10.2018 06:00:00 13,9 11,0 0 0 N 1011,6 10
16.10.2018 05:00:00 14,2 11,0 4 2 - 1011,1 10
16.10.2018 04:00:00 15,0 11,1 8 4 N 1011,1 10
16.10.2018 03:00:00 15,1 11,1 5 3 N 1011,3 10
16.10.2018 02:00:00 16,0 11,2 9 5 NNW 1011,5 10
16.10.2018 01:00:00 18,2 11,3 8 4 S 1011,6 10
16.10.2018 00:00:00 19,5 11,3 11 6 S 1011,8 10
15.10.2018 23:00:00 20,0 11,3 15 8 S 1011,6 10
15.10.2018 22:00:00 20,2 11,2 15 8 SSW 1011,2 10
15.10.2018 21:00:00 20,7 10,5 21 11 SW 1010,9 10
15.10.2018 20:00:00 20,7 8,0 22 12 SW 1010,8 10
15.10.2018 19:00:00 21,0 7,3 16 9 SW 1010,2 10
15.10.2018 18:00:00 21,7 7,5 24 13 WSW 1009,7 10
15.10.2018 17:00:00 22,5 5,9 24 13 WSW 1009,2 10
15.10.2018 16:00:00 22,3 6,2 24 13 WSW 1008,9 10
15.10.2018 15:00:00 21,9 6,7 29 16 W 1009,0 10
15.10.2018 14:00:00 20,9 6,8 28 15 WSW 1009,4 10
15.10.2018 13:00:00 21,0 7,1 24 13 W 1009,5 10
15.10.2018 12:00:00 20,7 7,3 31 17 WSW 1009,5 10
15.10.2018 11:00:00 21,2 7,1 28 15 WSW 1009,1 25
15.10.2018 10:00:00 19,1 8,4 28 15 W 1008,6 10
15.10.2018 09:00:00 19,0 7,8 31 17 WSW 1008,1 10
15.10.2018 08:00:00 18,7 7,7 28 15 W 1007,2 20
15.10.2018 07:00:00 18,5 7,9 31 17 WSW 1007,1 10
15.10.2018 06:00:00 18,6 7,3 26 14 WSW 1006,7 10
15.10.2018 05:00:00 18,8 6,3 29 16 W 1006,3 10
15.10.2018 04:00:00 18,9 7,0 35 19 WSW 1006,4 10
15.10.2018 03:00:00 18,8 7,6 26 14 W 1006,7 10
15.10.2018 02:00:00 19,2 7,3 16 9 W 1006,8 15
15.10.2018 01:00:00 19,5 8,3 16 9 W 1006,8 10
15.10.2018 00:00:00 20,1 7,5 18 10 W 1006,8 10
14.10.2018 23:00:00 19,9 9,5 16 9 W 1006,5 10
14.10.2018 22:00:00 19,0 11,9 18 10 W 1006,1 10
14.10.2018 21:00:00 22,3 17,4 22 12 SSE 1005,2 7
14.10.2018 20:00:00 22,2 16,9 24 13 S 1005,5 9
14.10.2018 19:00:00 22,5 19,0 9 5 ESE 1005,8 9
14.10.2018 18:00:00 23,0 18,8 11 6 SSW 1006,6 8
14.10.2018 17:00:00 24,0 18,4 13 7 SSE 1006,7 12
14.10.2018 16:00:00 24,8 17,5 15 8 SSE 1007,5 10
14.10.2018 15:00:00 25,4 17,3 26 14 SE 1007,8 10
14.10.2018 14:00:00 25,8 16,9 28 15 SE 1008,5 15
14.10.2018 13:00:00 25,3 17,1 24 13 ESE 1009,7 10
14.10.2018 12:00:00 24,9 17,4 24 13 ESE 1010,2 10
14.10.2018 11:00:00 23,8 17,1 24 13 ESE 1010,7 10
14.10.2018 10:00:00 23,2 17,0 21 11 E 1011,2 10
14.10.2018 09:00:00 22,4 16,9 21 11 E 1011,1 10
14.10.2018 08:00:00 21,9 16,7 16 9 E 1011,3 10
14.10.2018 07:00:00 21,7 16,9 16 9 E 1011,8 10
14.10.2018 06:00:00 21,9 16,9 16 9 E 1012,2 10
14.10.2018 05:00:00 22,0 17,1 13 7 E 1012,4 10
14.10.2018 04:00:00 22,0 17,1 13 7 E 1013,1 10
14.10.2018 03:00:00 22,2 17,1 13 7 ESE 1013,9 10
14.10.2018 02:00:00 22,1 16,6 9 5 SE 1014,6 10
14.10.2018 01:00:00 22,4 17,4 11 6 ESE 1015,0 10
14.10.2018 00:00:00 22,2 16,9 13 7 E 1015,7 10
13.10.2018 23:00:00 22,2 17,0 11 6 ESE 1016,2 15
13.10.2018 22:00:00 22,2 16,3 11 6 ESE 1016,2 10
13.10.2018 21:00:00 22,1 16,8 9 5 E 1016,3 10
13.10.2018 20:00:00 22,1 17,0 9 5 E 1016,5 10
13.10.2018 19:00:00 22,7 17,0 11 6 ESE 1016,6 10
13.10.2018 18:00:00 24,0 17,0 11 6 ESE 1016,9 10
13.10.2018 17:00:00 24,2 17,0 13 7 E 1017,2 15
13.10.2018 16:00:00 24,7 16,9 15 8 E 1017,9 10
13.10.2018 15:00:00 24,7 16,6 15 8 E 1018,7 10
13.10.2018 14:00:00 24,8 17,3 13 7 E 1019,5 10
13.10.2018 13:00:00 24,2 17,4 13 7 E 1020,3 10
13.10.2018 12:00:00 24,4 17,9 13 7 E 1020,6 10
13.10.2018 11:00:00 23,2 18,1 8 4 E 1020,7 15

tt = Température de l'air
td = dewpoint
ff = Vitesse du vent
dd = Direction du vent
ppp = reduced air pressure
vv = visibility

stations d'obs. à proximité